STARLINK-6113 (56113 NORAD) Tracking and Keplerian Element Data

This shows tracking and keplerian element data for the satellite.

Feedback or suggestion? Click here.




ElementValue
Catalog56113
NameSTARLINK-6113
Epoch Orbit652
Epoch Day127.25001157
Epoch Year2023
RAAN37.5946
Inclination43.0018
Eccentricity0.0001409
Argument of Perigee279.0105
Mean Anonmoly188.7001
Mean Motion15.31456902
Decay Rate-0.00896185
L11 56113U 23046W 23127.25001157 -.00896185 00000+0 -31476-1 0 9997
L22 56113 43.0018 37.5946 0001409 279.0105 188.7001 15.31456902 6520



Live tracking and technical data element details for STARLINK-6113 (NORAD 56113). STARLINK-6113 can be tracked NOW for your location showing map with azimuth and elevation plus other details from your city location.







IsCatalogInMostPopularTable: catalog: 56113, numindb: 1
Update: records affected: 1



GetName: 56113 STARLINK-6113

Hit Count: updated at: Sat, 03 Jun 2023 17:55:45 GMT